TimeMST,TemperatureF,Dew PointF,Humidity,Sea Level PressureIn,VisibilityMPH,Wind Direction,Wind SpeedMPH,Gust SpeedMPH,PrecipitationIn,Events,Conditions,WindDirDegrees,DateUTC
12:53 AM,24.1,14.0,65,29.88,10.0,South,3.5,-,N/A,,Partly Cloudy,190,2012-12-24 07:53:00
1:53 AM,24.1,12.9,62,29.87,10.0,South,4.6,-,N/A,,Clear,170,2012-12-24 08:53:00
2:53 AM,19.9,12.0,71,29.88,10.0,Calm,Calm,-,N/A,,Mostly Cloudy,0,2012-12-24 09:53:00
3:53 AM,19.9,10.9,68,29.88,10.0,Calm,Calm,-,N/A,,Scattered Clouds,0,2012-12-24 10:53:00
4:53 AM,21.0,10.9,65,29.87,10.0,Calm,Calm,-,N/A,,Clear,0,2012-12-24 11:53:00
5:53 AM,19.0,12.0,74,29.90,10.0,Calm,Calm,-,N/A,,Mostly Cloudy,0,2012-12-24 12:53:00
6:53 AM,16.0,10.0,77,29.90,10.0,North,3.5,-,N/A,,Scattered Clouds,350,2012-12-24 13:53:00
7:53 AM,16.0,10.9,81,29.91,10.0,NNW,5.8,-,N/A,,Scattered Clouds,330,2012-12-24 14:53:00
8:53 AM,21.0,15.1,78,29.93,10.0,NNW,4.6,-,N/A,,Clear,340,2012-12-24 15:53:00
9:53 AM,21.9,16.0,78,29.95,10.0,North,9.2,-,N/A,,Mostly Cloudy,350,2012-12-24 16:53:00
10:53 AM,21.0,15.1,78,29.96,10.0,NNW,12.7,-,N/A,,Clear,330,2012-12-24 17:53:00
11:22 AM,19.4,14.0,80,29.83,10.0,NNW,12.7,-,N/A,,Partly Cloudy,330,2012-12-24 18:22:00
11:44 AM,19.4,15.8,86,29.83,10.0,North,17.3,23.0,N/A,,Mostly Cloudy,350,2012-12-24 18:44:00
11:53 AM,19.0,15.1,85,29.96,10.0,North,16.1,24.2,N/A,,Mostly Cloudy,350,2012-12-24 18:53:00
12:53 PM,18.0,12.0,78,29.97,10.0,NNW,13.8,23.0,N/A,,Overcast,340,2012-12-24 19:53:00
1:53 PM,14.0,10.9,88,29.99,8.0,NW,13.8,26.5,N/A,,Overcast,320,2012-12-24 20:53:00
2:28 PM,12.2,8.6,85,29.86,2.0,NNW,16.1,25.3,0.00,Snow,Light Snow,330,2012-12-24 21:28:00
2:50 PM,12.2,8.6,85,29.88,1.5,NNW,16.1,26.5,0.00,Snow,Light Snow,340,2012-12-24 21:50:00
2:53 PM,12.9,9.0,84,30.04,1.2,North,15.0,26.5,0.00,Snow,Light Snow,350,2012-12-24 21:53:00
3:37 PM,10.4,6.8,85,29.90,1.0,NNW,17.3,25.3,0.00,Snow,Light Snow,340,2012-12-24 22:37:00
3:53 PM,10.0,6.1,84,30.09,1.2,NNW,19.6,26.5,0.00,Snow,Light Snow,330,2012-12-24 22:53:00
4:25 PM,8.6,5.0,85,29.92,1.0,NNW,20.7,25.3,0.00,Snow,Light Snow,330,2012-12-24 23:25:00
4:37 PM,8.6,3.2,79,29.93,1.2,NNW,20.7,25.3,0.00,Snow,Light Snow,340,2012-12-24 23:37:00
4:48 PM,8.6,3.2,79,29.93,2.5,NNW,21.9,26.5,0.00,Snow,Light Snow,340,2012-12-24 23:48:00
4:53 PM,9.0,3.9,80,30.12,2.5,NNW,21.9,34.5,0.00,Snow,Light Snow,330,2012-12-24 23:53:00
5:14 PM,8.6,3.2,79,29.95,1.8,NNW,20.7,26.5,0.00,Snow,Light Snow,340,2012-12-25 00:14:00
5:53 PM,8.1,3.0,80,30.17,1.5,NNW,19.6,-,0.00,Snow,Light Snow,330,2012-12-25 00:53:00
6:16 PM,6.8,1.4,79,29.99,1.8,NNW,17.3,25.3,0.00,Snow,Light Snow,330,2012-12-25 01:16:00
6:28 PM,6.8,1.4,79,29.99,2.5,NNW,16.1,26.5,0.00,Snow,Light Snow,330,2012-12-25 01:28:00
6:39 PM,6.8,1.4,79,30.00,3.0,NNW,19.6,26.5,0.00,Snow,Light Snow,330,2012-12-25 01:39:00
6:46 PM,6.8,1.4,79,30.00,2.5,NNW,19.6,25.3,0.00,Snow,Light Snow,330,2012-12-25 01:46:00
6:53 PM,6.1,1.9,83,30.22,2.0,NNW,18.4,25.3,0.00,Snow,Light Snow,340,2012-12-25 01:53:00
7:00 PM,6.8,1.4,79,30.01,1.8,NNW,17.3,25.3,0.00,Snow,Light Snow,340,2012-12-25 02:00:00
7:29 PM,5.0,1.4,85,30.02,1.2,NNW,20.7,25.3,0.00,Snow,Light Snow,330,2012-12-25 02:29:00
7:53 PM,5.0,-0.0,80,30.24,1.5,NNW,19.6,26.5,0.00,Snow,Light Snow,330,2012-12-25 02:53:00
8:11 PM,3.2,-0.4,85,30.04,2.0,NNW,16.1,25.3,0.00,Snow,Light Snow,330,2012-12-25 03:11:00
8:53 PM,3.9,-0.9,80,30.25,2.0,NNW,18.4,26.5,0.00,Snow,Light Snow,340,2012-12-25 03:53:00
9:26 PM,3.2,-0.4,85,30.06,1.5,NNW,17.3,26.5,0.00,Snow,Light Snow,330,2012-12-25 04:26:00
9:53 PM,3.0,-2.0,80,30.27,1.5,NNW,18.4,28.8,0.00,Snow,Light Snow,330,2012-12-25 04:53:00
10:14 PM,3.2,-2.2,78,30.08,1.5,NNW,17.3,25.3,0.00,Snow,Light Snow,330,2012-12-25 05:14:00
10:32 PM,1.4,-2.2,85,30.09,2.0,NNW,21.9,31.1,0.00,Snow,Light Snow,340,2012-12-25 05:32:00
10:53 PM,1.9,-2.9,80,30.31,2.0,NNW,17.3,26.5,0.00,Snow,Light Snow,340,2012-12-25 05:53:00
11:18 PM,1.4,-2.2,85,30.11,2.0,NNW,19.6,25.3,0.00,Snow,Light Snow,340,2012-12-25 06:18:00
11:40 PM,1.4,-2.2,85,30.12,2.5,NNW,18.4,25.3,0.00,Snow,Light Snow,330,2012-12-25 06:40:00
11:48 PM,1.4,-2.2,85,30.12,3.0,NNW,13.8,25.3,0.00,Snow,Light Snow,340,2012-12-25 06:48:00
11:53 PM,1.9,-2.9,80,30.34,3.0,NNW,15.0,26.5,0.00,Snow,Light Snow,340,2012-12-25 06:53:00